Flag for United Kingdom Weather past 2 weeks in Winchester, England, United Kingdom

Now
52 °F

Clear.


Feels Like: 51 °F
Forecast: 56 / 69 °F
Wind: 5 mph from Southwest

Location: Middle Wallop

Current Time: Jul 6, 2015 at 4:16:06 AM

Latest Report: Jul 6, 2015 at 2:50 AM


Visibility: N/A

Pressure: 30.09 "Hg

Humidity: 94%

Dew point: 50 °F

Location of WinchesterLocation

Historic Weather in Winchester — Graph

°F

Winchester temperature yesterday

Maximum temperature yesterday: 70 °F (at 4:50 PM)
Minimum temperature yesterday: 50 °F (at 4:50 AM)
Average temperature yesterday: 60 °F

Past Weeks' High & Low Weather Summary

 TemperatureHumidityPressure
High88 °F (Jul 1, 1:50 PM)100% (Jun 22, 4:50 AM)30.30 "Hg (Jun 22, 4:50 AM)
Low46 °F (Jul 3, 5:50 AM)26% (Jun 30, 6:50 PM)29.80 "Hg (Jun 22, 1:50 PM)
Average63 °F71%30.07 "Hg
* Reported Jun 21 2:50 AM — Jul 6 2:50 AM, Winchester, Weather by CustomWeather, © 2015

Note: Actual official high and low records may vary slightly from our data, if they occured in-between our weather recording intervals... More about our weather records

Advertising

Winchester weather history for previous 24 hours

 ConditionsComfort  
Time TempWeatherWind HumidityBarometerVisibility
2:50 AM
Mon, Jul 6
52 °FClear.5 mph94%30.09 "HgN/A
1:50 AM54 °FClear.6 mph88%30.09 "HgN/A
12:50 AM54 °FClear.5 mph94%30.09 "HgN/A
11:50 PM
Sun, Jul 5
55 °FClear.3 mph88%30.09 "HgN/A
10:50 PM55 °FClear.5 mph88%30.09 "HgN/A
9:50 PM59 °FPassing clouds.7 mph77%30.07 "HgN/A
8:50 PM61 °FPassing clouds.7 mph72%30.04 "HgN/A
7:50 PM63 °FPartly sunny.8 mph59%30.04 "HgN/A
6:50 PM64 °FScattered clouds.10 mph60%30.04 "HgN/A
5:50 PM64 °FPartly sunny.14 mph56%30.04 "HgN/A
4:50 PM70 °FPartly sunny.15 mph50%30.01 "HgN/A
3:50 PM68 °FBroken clouds.15 mph49%30.01 "HgN/A
2:50 PM68 °FPartly sunny.14 mph53%30.01 "HgN/A
1:50 PM68 °FScattered clouds.13 mph56%30.01 "HgN/A
12:50 PM68 °FBroken clouds.12 mph60%30.01 "HgN/A
11:50 AM64 °FPartly sunny.12 mph64%30.04 "HgN/A
10:50 AM63 °FPartly sunny.6 mph77%30.04 "HgN/A
9:50 AM59 °FPartly sunny.2 mph82%30.07 "HgN/A
8:50 AM55 °FPartly sunny.3 mph94%30.07 "HgN/A
7:50 AM54 °FPartly sunny.1 mph94%30.07 "HgN/A
6:50 AM54 °FOvercast.2 mph94%30.07 "HgN/A
5:50 AM52 °FPassing clouds.No wind100%30.09 "HgN/A
4:50 AM50 °FPassing clouds.1 mph100%30.09 "HgN/A
Weather by CustomWeather, © 2015

See weather overviewHow to use our weather pages